Tracking 22836 objects as of 18-Apr-2021
HD Live streaming from Space Station
objects crossing your sky now

DELTA 1 DEB

Track DELTA 1 DEB now!
10-day predictions


NORAD ID: 7169
Int'l Code: 1973-086EH
Perigee: 1,298.1 km
Apogee: 1,499.9 km
Inclination: 101.6 °
Period: 113.6 minutes
Semi major axis: 7769 km
RCS: 0.0854 m2 (small)
Launch date: November 6, 1973
Source: United States (US)
Launch site: AIR FORCE WESTERN TEST RANGE (AFWTR)

Note: This is SATELLITE DEBRIS
aabbcc
Your satellite tracking list
Your tracking list is empty




NASA's NSSDC Master Catalog

Two Line Element Set (TLE):
1 07169U 73086EH  21107.92959293  .00000376  00000-0  21273-2 0  9999
2 07169 101.5773 154.8445 0129846 250.2268 288.1323 12.67571901190360
Source of the keplerian elements: AFSPC